STARLINK-2022 (47643 NORAD) Tracking and Keplerian Element Data

This shows tracking and keplerian element data for the satellite.

Feedback or suggestion? Click here.




ElementValue
Catalog47643
NameSTARLINK-2022
Epoch Orbit282
Epoch Day60.16668981
Epoch Year2021
RAAN36.836
Inclination53.0499
Eccentricity0.000146
Argument of Perigee102.6367
Mean Anonmoly15.8618
Mean Motion15.86599333
Decay Rate0.00045681
L11 47643U 21012Z 21060.16668981 .00045681 00000-0 17835-3 0 9995
L22 47643 53.0499 36.8360 0001460 102.6367 15.8618 15.86599333 2821

Live tracking and technical data element details for STARLINK-2022 (NORAD 47643). STARLINK-2022 can be tracked NOW for your location showing map with azimuth and elevation plus other details from your city location.

Track the satellite on the map from your city or location and see movement details for azimuth, elevation, latitude, longitude, range, height, and movement on the map or in text.







IsCatalogInMostPopularTable: catalog: 47643, numindb: 3
Update: records affected: 1



GetName: 47643 STARLINK-2022

Hit Count: updated at: Mon, 01 Mar 2021 16:58:12 GMT